This is the latest recevied weather packets stored in our database for station/object IW1QQG-13. If no packets are shown the sender has not sent any weather packets the latest 10 day(s).
| Time | Temp. | Humidity | Pressure | Rain* | Wind** | Luminosity | Snow |
|---|---|---|---|---|---|---|---|
| 1777699228 | 14.44° C | 53% | 1026.1 hPa | 0 mm | - | 36 W/m² | - |
| 1777698628 | 13.89° C | 53% | 1026.1 hPa | 0 mm | - | 25 W/m² | - |
| 1777698028 | 13.89° C | 54% | 1025.7 hPa | 0 mm | - | 19 W/m² | - |
| 1777697428 | 13.89° C | 54% | 1025.7 hPa | 0 mm | - | 16 W/m² | - |
| 1777696828 | 13.33° C | 55% | 1025.7 hPa | 0 mm | - | 12 W/m² | - |
| 1777696228 | 13.33° C | 56% | 1025.7 hPa | 0 mm | - | 7 W/m² | - |
| 1777695628 | 13.33° C | 55% | 1025.7 hPa | 0 mm | - | 3 W/m² | - |
| 1777695028 | 13.89° C | 54% | 1025.7 hPa | 0 mm | - | 1 W/m² | - |
| 1777694428 | 13.89° C | 54% | 1025.7 hPa | 0 mm | - | 0 W/m² | - |
| 1777693828 | 13.89° C | 53% | 1025.7 hPa | 0 mm | - | 0 W/m² | - |
| 1777693228 | 13.89° C | 53% | 1025.7 hPa | 0 mm | - | 0 W/m² | - |
| 1777692628 | 13.89° C | 54% | 1025.7 hPa | 0 mm | - | 0 W/m² | - |
| 1777692028 | 13.33° C | 54% | 1025.7 hPa | 0 mm | - | 0 W/m² | - |
| 1777691428 | 13.33° C | 54% | 1025.7 hPa | 0 mm | - | 0 W/m² | - |
| 1777690828 | 13.89° C | 51% | 1025.7 hPa | 0 mm | - | 0 W/m² | - |
| 1777690228 | 13.89° C | 51% | 1025.7 hPa | 0 mm | - | 0 W/m² | - |
| 1777689628 | 13.89° C | 53% | 1025.7 hPa | 0 mm | - | 0 W/m² | - |
| 1777689028 | 13.89° C | 53% | 1025.7 hPa | 0 mm | - | 0 W/m² | - |
| 1777688428 | 13.89° C | 55% | 1026.1 hPa | 0 mm | - | 0 W/m² | - |
| 1777687828 | 13.89° C | 53% | 1026.1 hPa | 0 mm | - | 0 W/m² | - |
| 1777687228 | 13.89° C | 51% | 1025.7 hPa | 0 mm | - | 0 W/m² | - |
| 1777686628 | 14.44° C | 51% | 1025.7 hPa | 0 mm | - | 0 W/m² | - |
| 1777686028 | 14.44° C | 49% | 1025.7 hPa | 0 mm | - | 0 W/m² | - |
| 1777685428 | 15° C | 49% | 1025.7 hPa | 0 mm | - | 0 W/m² | - |
| 1777684828 | 15° C | 48% | 1025.7 hPa | 0 mm | - | 0 W/m² | - |
* Rain latest hour (hover to see other rain measurements)
** Current wind speed in m/s (hover to see current wind gust speed)